Time,TemperatureF,DewpointF,PressureIn,WindDirection,WindDirectionDegrees,WindSpeedMPH,WindSpeedGustMPH,Humidity,HourlyPrecipIn,Conditions,Clouds,dailyrainin,SoftwareType,DateUTC
2013-01-18 00:05:00,61.0,53.0,30.08,NNW,329,6.0,-999.0,75,-99.99,,,0.00,weatherlink.com 1.10,2013-01-18 05:05:00,
2013-01-18 00:20:00,61.1,54.0,30.09,NW,311,6.0,-999.0,76,-99.99,,,0.00,weatherlink.com 1.10,2013-01-18 05:20:00,
2013-01-18 00:35:00,60.8,53.0,30.09,WNW,290,4.0,-999.0,75,-99.99,,,0.00,weatherlink.com 1.10,2013-01-18 05:35:00,
2013-01-18 00:50:00,60.3,53.0,30.09,WNW,288,8.0,-999.0,76,-99.99,,,0.00,weatherlink.com 1.10,2013-01-18 05:50:00,
2013-01-18 01:05:00,60.0,52.0,30.09,NW,306,5.0,-999.0,76,-99.99,,,0.00,weatherlink.com 1.10,2013-01-18 06:05:00,
2013-01-18 01:20:00,59.7,52.0,30.09,WNW,294,5.0,-999.0,77,-99.99,,,0.00,weatherlink.com 1.10,2013-01-18 06:20:00,
2013-01-18 01:35:00,59.4,52.0,30.09,NNW,329,4.0,-999.0,77,-99.99,,,0.00,weatherlink.com 1.10,2013-01-18 06:35:00,
2013-01-18 01:50:00,59.1,52.0,30.09,NW,304,2.0,-999.0,77,-99.99,,,0.00,weatherlink.com 1.10,2013-01-18 06:50:00,
2013-01-18 02:05:00,58.8,52.0,30.09,NW,306,2.0,-999.0,78,-99.99,,,0.00,weatherlink.com 1.10,2013-01-18 07:05:00,
2013-01-18 02:20:00,58.6,52.0,30.09,NW,319,2.0,-999.0,78,-99.99,,,0.00,weatherlink.com 1.10,2013-01-18 07:20:00,
2013-01-18 02:35:00,58.3,52.0,30.09,WNW,296,1.0,-999.0,79,-99.99,,,0.00,weatherlink.com 1.10,2013-01-18 07:35:00,
2013-01-18 02:50:00,58.1,52.0,30.10,NNW,335,3.0,-999.0,79,-99.99,,,0.00,weatherlink.com 1.10,2013-01-18 07:50:00,
2013-01-18 03:05:00,57.9,51.0,30.10,NW,304,4.0,-999.0,79,-99.99,,,0.00,weatherlink.com 1.10,2013-01-18 08:05:00,
2013-01-18 03:20:00,57.7,52.0,30.10,NW,313,1.0,-999.0,80,-99.99,,,0.00,weatherlink.com 1.10,2013-01-18 08:20:00,
2013-01-18 03:35:00,57.5,52.0,30.11,West,279,0.0,-999.0,81,-99.99,,,0.00,weatherlink.com 1.10,2013-01-18 08:35:00,
2013-01-18 03:50:00,57.2,52.0,30.10,West,269,0.0,-999.0,82,-99.99,,,0.00,weatherlink.com 1.10,2013-01-18 08:50:00,
2013-01-18 04:05:00,57.0,52.0,30.10,WNW,297,1.0,-999.0,83,-99.99,,,0.00,weatherlink.com 1.10,2013-01-18 09:05:00,
2013-01-18 04:20:00,57.0,52.0,30.11,WNW,298,2.0,-999.0,82,-99.99,,,0.00,weatherlink.com 1.10,2013-01-18 09:20:00,
2013-01-18 04:35:00,56.7,51.0,30.11,NNW,327,10.0,-999.0,81,-99.99,,,0.00,weatherlink.com 1.10,2013-01-18 09:35:00,
2013-01-18 04:50:00,56.1,50.0,30.12,NNW,344,7.0,-999.0,80,-99.99,,,0.00,weatherlink.com 1.10,2013-01-18 09:50:00,
2013-01-18 05:05:00,55.6,50.0,30.12,SW,232,5.0,-999.0,81,-99.99,,,0.00,weatherlink.com 1.10,2013-01-18 10:05:00,
2013-01-18 05:20:00,55.4,50.0,30.12,West,275,1.0,-999.0,82,-99.99,,,0.00,weatherlink.com 1.10,2013-01-18 10:20:00,
2013-01-18 05:35:00,55.0,48.0,30.13,NNW,329,6.0,-999.0,78,-99.99,,,0.00,weatherlink.com 1.10,2013-01-18 10:35:00,
2013-01-18 05:50:00,54.8,48.0,30.14,NE,39,4.0,-999.0,79,-99.99,,,0.00,weatherlink.com 1.10,2013-01-18 10:50:00,
2013-01-18 06:05:00,54.3,48.0,30.14,NNE,30,3.0,-999.0,78,-99.99,,,0.00,weatherlink.com 1.10,2013-01-18 11:05:00,
2013-01-18 06:20:00,53.7,47.0,30.15,NNW,329,3.0,-999.0,79,-99.99,,,0.00,weatherlink.com 1.10,2013-01-18 11:20:00,
2013-01-18 06:36:00,53.4,47.0,30.16,NW,313,1.0,-999.0,80,-99.99,,,0.00,weatherlink.com 1.10,2013-01-18 11:36:00,
2013-01-18 06:51:00,52.8,46.0,30.17,NW,323,4.0,-999.0,79,-99.99,,,0.00,weatherlink.com 1.10,2013-01-18 11:51:00,
2013-01-18 07:06:00,52.4,46.0,30.18,NNW,329,5.0,-999.0,79,-99.99,,,0.00,weatherlink.com 1.10,2013-01-18 12:06:00,
2013-01-18 07:21:00,51.9,46.0,30.19,NNW,333,5.0,-999.0,80,-99.99,,,0.00,weatherlink.com 1.10,2013-01-18 12:21:00,
2013-01-18 07:36:00,51.6,46.0,30.18,NW,317,2.0,-999.0,81,-99.99,,,0.00,weatherlink.com 1.10,2013-01-18 12:36:00,
2013-01-18 07:51:00,52.1,46.0,30.19,NNW,338,2.0,-999.0,81,-99.99,,,0.00,weatherlink.com 1.10,2013-01-18 12:51:00,
2013-01-18 08:06:00,52.5,47.0,30.19,NW,323,4.0,-999.0,80,-99.99,,,0.00,weatherlink.com 1.10,2013-01-18 13:06:00,
2013-01-18 08:21:00,52.7,47.0,30.20,NW,325,8.0,-999.0,80,-99.99,,,0.00,weatherlink.com 1.10,2013-01-18 13:21:00,
2013-01-18 08:36:00,53.1,47.0,30.20,WNW,303,1.0,-999.0,80,-99.99,,,0.00,weatherlink.com 1.10,2013-01-18 13:36:00,
2013-01-18 08:51:00,53.9,48.0,30.21,NW,326,3.0,-999.0,79,-99.99,,,0.00,weatherlink.com 1.10,2013-01-18 13:51:00,
2013-01-18 09:06:00,54.3,47.0,30.21,West,272,1.0,-999.0,77,-99.99,,,0.00,weatherlink.com 1.10,2013-01-18 14:06:00,
2013-01-18 09:21:00,55.1,48.0,30.22,WNW,289,5.0,-999.0,77,-99.99,,,0.00,weatherlink.com 1.10,2013-01-18 14:21:00,
2013-01-18 09:36:00,55.6,48.0,30.22,NW,311,3.0,-999.0,76,-99.99,,,0.00,weatherlink.com 1.10,2013-01-18 14:36:00,
2013-01-18 09:51:00,56.3,48.0,30.22,WNW,294,3.0,-999.0,75,-99.99,,,0.00,weatherlink.com 1.10,2013-01-18 14:51:00,
2013-01-18 10:06:00,56.9,49.0,30.22,WNW,293,2.0,-999.0,74,-99.99,,,0.00,weatherlink.com 1.10,2013-01-18 15:06:00,
2013-01-18 10:21:00,57.6,49.0,30.22,West,276,2.0,-999.0,72,-99.99,,,0.00,weatherlink.com 1.10,2013-01-18 15:21:00,
2013-01-18 10:36:00,57.8,48.0,30.22,WNW,298,5.0,-999.0,71,-99.99,,,0.00,weatherlink.com 1.10,2013-01-18 15:36:00,
2013-01-18 10:51:00,58.4,49.0,30.22,NW,319,3.0,-999.0,72,-99.99,,,0.00,weatherlink.com 1.10,2013-01-18 15:51:00,
2013-01-18 11:06:00,59.3,50.0,30.22,NW,311,3.0,-999.0,70,-99.99,,,0.00,weatherlink.com 1.10,2013-01-18 16:06:00,
2013-01-18 11:21:00,60.4,50.0,30.21,WNW,294,3.0,-999.0,69,-99.99,,,0.00,weatherlink.com 1.10,2013-01-18 16:21:00,
2013-01-18 11:36:00,60.9,51.0,30.21,WNW,284,1.0,-999.0,69,-99.99,,,0.00,weatherlink.com 1.10,2013-01-18 16:36:00,
2013-01-18 11:51:00,62.0,51.0,30.20,WNW,287,0.0,-999.0,68,-99.99,,,0.00,weatherlink.com 1.10,2013-01-18 16:51:00,
2013-01-18 12:21:00,64.3,53.0,30.18,WNW,288,2.0,-999.0,67,-99.99,,,0.00,weatherlink.com 1.10,2013-01-18 17:21:00,
2013-01-18 12:37:00,65.3,54.0,30.17,NE,44,2.0,-999.0,67,-99.99,,,0.00,weatherlink.com 1.10,2013-01-18 17:37:00,
2013-01-18 12:51:00,66.7,55.0,30.16,ENE,69,2.0,-999.0,66,-99.99,,,0.00,weatherlink.com 1.10,2013-01-18 17:51:00,
2013-01-18 13:06:00,68.2,55.0,30.16,NNE,15,1.0,-999.0,64,-99.99,,,0.00,weatherlink.com 1.10,2013-01-18 18:06:00,
2013-01-18 13:21:00,68.8,56.0,30.15,NE,44,2.0,-999.0,65,-99.99,,,0.00,weatherlink.com 1.10,2013-01-18 18:21:00,
2013-01-18 13:36:00,68.9,56.0,30.15,NW,325,3.0,-999.0,64,-99.99,,,0.00,weatherlink.com 1.10,2013-01-18 18:36:00,
2013-01-18 13:51:00,69.6,57.0,30.14,NNW,344,0.0,-999.0,65,-99.99,,,0.00,weatherlink.com 1.10,2013-01-18 18:51:00,
2013-01-18 14:06:00,70.8,58.0,30.14,ENE,65,8.0,-999.0,65,-99.99,,,0.00,weatherlink.com 1.10,2013-01-18 19:06:00,
2013-01-18 14:21:00,71.1,59.0,30.13,ENE,67,4.0,-999.0,65,-99.99,,,0.00,weatherlink.com 1.10,2013-01-18 19:21:00,
2013-01-18 14:36:00,70.4,59.0,30.13,ENE,58,2.0,-999.0,67,-99.99,,,0.00,weatherlink.com 1.10,2013-01-18 19:36:00,
2013-01-18 14:51:00,71.7,59.0,30.13,NW,316,4.0,-999.0,64,-99.99,,,0.00,weatherlink.com 1.10,2013-01-18 19:51:00,
2013-01-18 15:07:00,71.5,58.0,30.13,North,351,3.0,-999.0,63,-99.99,,,0.00,weatherlink.com 1.10,2013-01-18 20:07:00,
2013-01-18 15:22:00,71.6,59.0,30.13,East,86,2.0,-999.0,64,-99.99,,,0.00,weatherlink.com 1.10,2013-01-18 20:22:00,
2013-01-18 15:37:00,71.7,60.0,30.13,NE,39,1.0,-999.0,66,-99.99,,,0.00,weatherlink.com 1.10,2013-01-18 20:37:00,
2013-01-18 15:52:00,70.7,59.0,30.13,ENE,62,13.0,-999.0,67,-99.99,,,0.00,weatherlink.com 1.10,2013-01-18 20:52:00,
2013-01-18 16:07:00,70.8,60.0,30.14,ENE,71,5.0,-999.0,68,-99.99,,,0.00,weatherlink.com 1.10,2013-01-18 21:07:00,
2013-01-18 16:22:00,71.0,60.0,30.14,NNE,12,5.0,-999.0,68,-99.99,,,0.00,weatherlink.com 1.10,2013-01-18 21:22:00,
2013-01-18 16:37:00,71.0,60.0,30.14,North,5,4.0,-999.0,68,-99.99,,,0.00,weatherlink.com 1.10,2013-01-18 21:37:00,
2013-01-18 16:52:00,70.7,60.0,30.14,NNE,19,3.0,-999.0,68,-99.99,,,0.00,weatherlink.com 1.10,2013-01-18 21:52:00,
2013-01-18 17:07:00,70.7,59.0,30.14,NNW,339,2.0,-999.0,66,-99.99,,,0.00,weatherlink.com 1.10,2013-01-18 22:07:00,
2013-01-18 17:22:00,70.6,58.0,30.15,NNE,24,3.0,-999.0,64,-99.99,,,0.00,weatherlink.com 1.10,2013-01-18 22:22:00,
2013-01-18 17:37:00,70.4,58.0,30.15,ENE,62,5.0,-999.0,64,-99.99,,,0.00,weatherlink.com 1.10,2013-01-18 22:37:00,
2013-01-18 17:52:00,70.3,58.0,30.16,NNE,23,0.0,-999.0,65,-99.99,,,0.00,weatherlink.com 1.10,2013-01-18 22:52:00,
2013-01-18 18:07:00,70.1,58.0,30.16,NE,50,2.0,-999.0,65,-99.99,,,0.00,weatherlink.com 1.10,2013-01-18 23:07:00,
2013-01-18 18:22:00,69.9,57.0,30.16,NE,47,3.0,-999.0,64,-99.99,,,0.00,weatherlink.com 1.10,2013-01-18 23:22:00,
2013-01-18 18:37:00,69.9,57.0,30.16,NNW,338,1.0,-999.0,63,-99.99,,,0.00,weatherlink.com 1.10,2013-01-18 23:37:00,
2013-01-18 18:52:00,69.8,57.0,30.16,ENE,73,1.0,-999.0,64,-99.99,,,0.00,weatherlink.com 1.10,2013-01-18 23:52:00,
2013-01-18 19:07:00,69.6,56.0,30.17,NE,49,2.0,-999.0,63,-99.99,,,0.00,weatherlink.com 1.10,2013-01-19 00:07:00,
2013-01-18 19:22:00,69.7,56.0,30.17,NE,49,1.0,-999.0,62,-99.99,,,0.00,weatherlink.com 1.10,2013-01-19 00:22:00,
2013-01-18 19:37:00,69.7,56.0,30.17,ENE,71,3.0,-999.0,62,-99.99,,,0.00,weatherlink.com 1.10,2013-01-19 00:37:00,
2013-01-18 19:52:00,70.0,57.0,30.17,ENE,62,2.0,-999.0,64,-99.99,,,0.00,weatherlink.com 1.10,2013-01-19 00:52:00,
2013-01-18 20:07:00,69.8,57.0,30.18,NNE,28,1.0,-999.0,65,-99.99,,,0.00,weatherlink.com 1.10,2013-01-19 01:07:00,
2013-01-18 20:22:00,69.6,58.0,30.18,NE,49,1.0,-999.0,66,-99.99,,,0.00,weatherlink.com 1.10,2013-01-19 01:22:00,
2013-01-18 20:37:00,69.4,57.0,30.18,ENE,58,4.0,-999.0,66,-99.99,,,0.00,weatherlink.com 1.10,2013-01-19 01:37:00,
2013-01-18 20:52:00,69.5,58.0,30.18,NNW,342,3.0,-999.0,66,-99.99,,,0.00,weatherlink.com 1.10,2013-01-19 01:52:00,
2013-01-18 21:07:00,69.4,57.0,30.18,NE,40,2.0,-999.0,66,-99.99,,,0.00,weatherlink.com 1.10,2013-01-19 02:07:00,
2013-01-18 21:22:00,69.4,58.0,30.18,ENE,65,0.0,-999.0,67,-99.99,,,0.00,weatherlink.com 1.10,2013-01-19 02:22:00,
2013-01-18 21:37:00,69.4,58.0,30.18,NE,42,0.0,-999.0,67,-99.99,,,0.00,weatherlink.com 1.10,2013-01-19 02:37:00,
2013-01-18 21:52:00,69.4,57.0,30.18,ENE,74,3.0,-999.0,66,-99.99,,,0.00,weatherlink.com 1.10,2013-01-19 02:52:00,
2013-01-18 22:07:00,69.5,57.0,30.18,NNE,24,1.0,-999.0,64,-99.99,,,0.00,weatherlink.com 1.10,2013-01-19 03:07:00,
2013-01-18 22:22:00,69.5,57.0,30.18,NE,50,3.0,-999.0,65,-99.99,,,0.00,weatherlink.com 1.10,2013-01-19 03:22:00,
2013-01-18 22:37:00,69.7,57.0,30.18,ESE,110,2.0,-999.0,65,-99.99,,,0.00,weatherlink.com 1.10,2013-01-19 03:37:00,
2013-01-18 22:52:00,69.9,58.0,30.17,East,89,2.0,-999.0,66,-99.99,,,0.00,weatherlink.com 1.10,2013-01-19 03:52:00,
2013-01-18 23:07:00,69.9,58.0,30.17,East,96,0.0,-999.0,66,-99.99,,,0.00,weatherlink.com 1.10,2013-01-19 04:07:00,
2013-01-18 23:23:00,69.8,59.0,30.17,ESE,105,2.0,-999.0,68,-99.99,,,0.00,weatherlink.com 1.10,2013-01-19 04:23:00,
2013-01-18 23:37:00,69.8,59.0,30.16,ESE,123,0.0,-999.0,69,-99.99,,,0.00,weatherlink.com 1.10,2013-01-19 04:37:00,
2013-01-18 23:52:00,69.8,59.0,30.16,East,84,5.0,-999.0,68,-99.99,,,0.00,weatherlink.com 1.10,2013-01-19 04:52:00,